Regional Weather Roundup
Issued by NWS State College, PA

Home | Current Version | Previous Version | Text Only | Print | Product List | Glossary On
Versions: 1 2 3 4 5 6 7 8 9 10 11 12 13 14 15 16 17 18 19 20 21 22 23 24 25 26 27 28 29 30 31 32 33 34 35 36 37 38 39 40 41 42 43 44 45 46 47 48 49 50
000
ASUS41 KCTP 220903
RWRCTP

REGIONAL WEATHER ROUNDUP
NATIONAL WEATHER SERVICE STATE COLLEGE PA
500 AM EDT FRI AUG 22 2014

Note: "fair" indicates few or no clouds below 12,000 feet with no
significant weather and/or obstructions to visibility.

* = STATION THAT DOES NOT REPORT PRECIPITATION /E.G. RAIN...SNOW...ETC/
    THUNDER OR FOG.

PAZ002>004-007>009-013>016-020>023-029>032-221000-
WESTERN PENNSYLVANIA

CITY           SKY/WX    TMP DP  RH WIND       PRES   REMARKS
ERIE           CLOUDY    71  67  87 CALM      29.95F
MEADVILLE      CLOUDY    69  67  93 CALM      29.98F
FRANKLIN*      CLOUDY    66  64  94 CALM      30.01S
NEW CASTLE     NOT AVBL
BEAVER COUNTY  NOT AVBL
BUTLER*        CLOUDY    68  66  94 S6        30.02R
PITTSBURGH INT FOG       68  67  96 S3        29.99S VSB 1
PITTSBURGH     CLOUDY    68  66  93 S6        30.00S FOG
INDIANA*       CLOUDY    70  68  94 CALM      30.04F FOG
LATROBE        CLOUDY    70  70 100 S6        30.01F
WASHINGTON CO* MOCLDY    66  66 100 CALM      30.01S
$$

PAZ004>006-010>012-017>019-024>028-033>037-041-042-045-046-049>053-221000-
CENTRAL PENNSYLVANIA

CITY           SKY/WX    TMP DP  RH WIND       PRES   REMARKS
BRADFORD       CLOUDY    66  65  96 CALM      30.02F FOG
DUBOIS         CLOUDY    67  66  97 CALM      30.00F FOG
CLEARFIELD     CLOUDY    67  67 100 S3        30.01S FOG
JOHNSTOWN      CLOUDY    66  64  93 CALM      30.04F
ALTOONA        CLOUDY    66  65  96 SE3       30.02S
STATE COLLEGE  MOCLDY    65  65  97 CALM      30.00S FOG
WILLIAMSPORT   CLOUDY    66  64  93 NW3       29.98R FOG
SELINSGROVE    CLOUDY    68  67  96 CALM      29.98F FOG
FT INDIANTOWN  MOCLDY    68  68 100 E3        29.99F
CAPITAL CITY   PTCLDY    65  64  97 CALM      29.98S FOG
HARRISBURG     MOCLDY    68  65  90 CALM      29.97S FOG
YORK           FOG       62  61  96 CALM      29.98S VSB 1/4
$$

PAZ038>040-043-044-047-048-054-055-060>062-067>071-221000-
EASTERN PENNSYLVANIA

CITY           SKY/WX    TMP DP  RH WIND       PRES   REMARKS
SCRANTON       MOCLDY    67  64  90 E5        30.00S
MOUNT POCONO   MOCLDY    62  60  93 E3        30.04S FOG
ALLENTOWN      CLOUDY    67  64  90 NE6       30.00S
QUAKERTOWN*    CLOUDY    66  66 100 CALM      30.00S
READING        CLOUDY    69  66  90 CALM      29.98S
LANCASTER      CLOUDY    69  67  93 E3        29.99R
COATESVILLE    CLOUDY    66  66 100 CALM      30.00F
POTTSTOWN      CLOUDY    66  65  96 CALM      30.00F
BLUE BELL      MOCLDY    68  66  94 CALM      29.97F
DOYLESTOWN     CLOUDY    65  65 100 NE5       29.99R
WILLOW GROVE   NOT AVBL
NORTH PHILA    CLOUDY    68  64  87 E6        29.99F
PHILADELPHIA   LGT RAIN  69  66  90 E5        29.97F
$$



USA.gov is the U.S. government's official web portal to all federal, state and local government web resources and services.